| time (UTC) | temp F | wind direction | speed MPH | gust MPH | rain 1hr in | rain 24hr in | rain mn in | humidity % | barometer mb |
| 20260507060035 | 63 | 225 | 17.0 | 46.0 | 0.00 | 0.00 | 0.00 | 49 | 1014.3 |
| 20260507055532 | 63 | 180 | 2.0 | 18.0 | 0.00 | 0.00 | 0.00 | 49 | 1014.3 |
| 20260507055030 | 63 | 225 | 1.0 | 24.0 | 0.00 | 0.00 | 0.00 | 49 | 1014.2 |
| 20260507054527 | 63 | 180 | 1.0 | 11.0 | 0.00 | 0.00 | 0.00 | 49 | 1014.2 |
| 20260507054025 | 63 | 180 | 0.0 | 26.0 | 0.00 | 0.00 | 0.00 | 50 | 1014.1 |
| 20260507053523 | 63 | 180 | 2.0 | 23.0 | 0.00 | 0.00 | 0.00 | 50 | 1014.0 |
| 20260507053020 | 63 | 225 | 2.0 | 44.0 | 0.00 | 0.00 | 0.00 | 50 | 1013.9 |
| 20260507052518 | 63 | 180 | 1.0 | 27.0 | 0.00 | 0.00 | 0.00 | 50 | 1013.9 |
| 20260507052015 | 63 | 225 | 3.0 | 26.0 | 0.00 | 0.00 | 0.00 | 50 | 1013.8 |
| 20260507051513 | 63 | 225 | 17.0 | 25.0 | 0.00 | 0.00 | 0.00 | 50 | 1013.9 |
| 20260507051010 | 63 | 180 | 2.0 | 25.0 | 0.00 | 0.00 | 0.00 | 50 | 1013.9 |
| 20260507050508 | 63 | 225 | 1.0 | 22.0 | 0.00 | 0.00 | 0.00 | 50 | 1013.8 |
| 20260507050006 | 63 | 315 | 0.0 | 27.0 | 0.00 | 0.00 | 0.00 | 50 | 1013.8 |
| 20260507045503 | 63 | 180 | 0.0 | 1.0 | 0.00 | 0.00 | 0.00 | 50 | 1013.8 |
| 20260507045001 | 62 | 180 | 0.0 | 23.0 | 0.00 | 0.00 | 0.00 | 50 | 1013.8 |
| 20260507044458 | 62 | 315 | 0.0 | 24.0 | 0.00 | 0.00 | 0.00 | 50 | 1013.6 |
| 20260507043956 | 62 | 180 | 0.0 | 26.0 | 0.00 | 0.00 | 0.00 | 50 | 1013.6 |
| 20260507043454 | 62 | 225 | 1.0 | 23.0 | 0.00 | 0.00 | 0.00 | 50 | 1013.7 |
| 20260507042951 | 62 | 315 | 0.0 | 2.0 | 0.00 | 0.00 | 0.00 | 50 | 1013.6 |
| 20260507042449 | 62 | 180 | 0.0 | 11.0 | 0.00 | 0.00 | 0.00 | 50 | 1013.5 |
| 20260507041946 | 61 | 180 | 0.0 | 29.0 | 0.00 | 0.00 | 0.00 | 50 | 1013.5 |
| 20260507041444 | 61 | 180 | 0.0 | 23.0 | 0.00 | 0.00 | 0.00 | 50 | 1013.4 |
| 20260507040942 | 61 | 225 | 2.0 | 25.0 | 0.00 | 0.00 | 0.00 | 50 | 1013.3 |
| 20260507040439 | 61 | 225 | 1.0 | 22.0 | 0.00 | 0.00 | 0.00 | 50 | 1013.2 |
| 20260507035937 | 61 | 225 | 2.0 | 2.0 | 0.00 | 0.00 | 0.00 | 50 | 1013.1 |
| 20260507035434 | 61 | 180 | 0.0 | 2.0 | 0.00 | 0.00 | 0.00 | 50 | 1013.1 |
| 20260507034932 | 61 | 180 | 0.0 | 23.0 | 0.00 | 0.00 | 0.00 | 50 | 1013.1 |
| 20260507034429 | 61 | 180 | 6.0 | 23.0 | 0.00 | 0.00 | 0.00 | 50 | 1013.1 |
| 20260507033927 | 61 | 180 | 0.0 | 19.0 | 0.00 | 0.00 | 0.00 | 50 | 1013.0 |
| 20260507033425 | 61 | 180 | 0.0 | 26.0 | 0.00 | 0.00 | 0.00 | 50 | 1013.0 |
| 20260507032922 | 61 | 135 | 0.0 | 23.0 | 0.00 | 0.00 | 0.00 | 50 | 1012.9 |
| 20260507032420 | 61 | 225 | 1.0 | 33.0 | 0.00 | 0.00 | 0.00 | 50 | 1012.9 |
| 20260507031917 | 61 | 315 | 0.0 | 25.0 | 0.00 | 0.00 | 0.00 | 50 | 1012.8 |
| 20260507031415 | 62 | 225 | 1.0 | 24.0 | 0.00 | 0.00 | 0.00 | 50 | 1012.7 |
| 20260507030913 | 62 | 180 | 1.0 | 17.0 | 0.00 | 0.00 | 0.00 | 50 | 1012.7 |
| 20260507030410 | 62 | 180 | 1.0 | 28.0 | 0.00 | 0.00 | 0.00 | 50 | 1012.7 |
| 20260507025908 | 62 | 225 | 0.0 | 25.0 | 0.00 | 0.00 | 0.00 | 50 | 1012.6 |
| 20260507024903 | 62 | 180 | 0.0 | 29.0 | 0.00 | 0.00 | 0.00 | 50 | 1012.6 |
| 20260507024401 | 62 | 180 | 4.0 | 23.0 | 0.00 | 0.00 | 0.00 | 50 | 1012.5 |
| 20260507023858 | 62 | 225 | 1.0 | 30.0 | 0.00 | 0.00 | 0.00 | 50 | 1012.5 |
| 20260507023356 | 62 | 180 | 4.0 | 28.0 | 0.00 | 0.00 | 0.00 | 50 | 1012.5 |
| 20260507022853 | 62 | 225 | 6.0 | 25.0 | 0.00 | 0.00 | 0.00 | 50 | 1012.5 |
| 20260507022351 | 63 | 225 | 2.0 | 27.0 | 0.00 | 0.00 | 0.00 | 50 | 1012.4 |
| 20260507021848 | 63 | 180 | 3.0 | 29.0 | 0.00 | 0.00 | 0.00 | 50 | 1012.4 |
| 20260507021346 | 63 | 225 | 4.0 | 26.0 | 0.00 | 0.00 | 0.00 | 50 | 1012.4 |
| 20260507020844 | 62 | 225 | 2.0 | 21.0 | 0.00 | 0.00 | 0.00 | 50 | 1012.4 |
| 20260507020341 | 62 | 180 | 1.0 | 26.0 | 0.00 | 0.00 | 0.00 | 50 | 1012.3 |
| 20260507015839 | 62 | 180 | 1.0 | 26.0 | 0.00 | 0.00 | 0.00 | 50 | 1012.3 |
| 20260507015336 | 62 | 225 | 1.0 | 27.0 | 0.00 | 0.00 | 0.00 | 50 | 1012.3 |
| 20260507014834 | 63 | 180 | 1.0 | 28.0 | 0.00 | 0.00 | 0.00 | 51 | 1012.3 |
| 20260507014332 | 63 | 225 | 2.0 | 28.0 | 0.00 | 0.00 | 0.00 | 51 | 1012.2 |
| 20260507013829 | 63 | 180 | 1.0 | 22.0 | 0.00 | 0.00 | 0.00 | 51 | 1012.3 |
| 20260507012824 | 63 | 180 | 0.0 | 31.0 | 0.00 | 0.00 | 0.00 | 51 | 1012.1 |
| 20260507012322 | 63 | 225 | 0.0 | 27.0 | 0.00 | 0.00 | 0.00 | 51 | 1012.1 |
| 20260507011820 | 63 | 225 | 3.0 | 27.0 | 0.00 | 0.00 | 0.00 | 51 | 1012.1 |
| 20260507011317 | 63 | 180 | 1.0 | 23.0 | 0.00 | 0.00 | 0.00 | 51 | 1012.1 |
| 20260507010815 | 63 | 225 | 2.0 | 36.0 | 0.00 | 0.00 | 0.00 | 51 | 1011.9 |
| 20260507010312 | 63 | 225 | 3.0 | 29.0 | 0.00 | 0.00 | 0.00 | 51 | 1011.8 |
| 20260507005810 | 63 | 180 | 1.0 | 24.0 | 0.00 | 0.00 | 0.00 | 51 | 1011.7 |
| 20260507005308 | 63 | 225 | 4.0 | 50.0 | 0.00 | 0.00 | 0.00 | 50 | 1011.5 |
| 20260507004805 | 63 | 225 | 3.0 | 27.0 | 0.00 | 0.00 | 0.00 | 50 | 1011.5 |
| 20260507004303 | 63 | 225 | 7.0 | 32.0 | 0.00 | 0.00 | 0.00 | 50 | 1011.5 |
| 20260507003800 | 64 | 225 | 1.0 | 23.0 | 0.00 | 0.00 | 0.00 | 50 | 1011.6 |
| 20260507003258 | 64 | 225 | 7.0 | 26.0 | 0.00 | 0.00 | 0.00 | 50 | 1011.7 |
| 20260507002755 | 64 | 180 | 3.0 | 26.0 | 0.00 | 0.00 | 0.00 | 50 | 1011.8 |
| 20260507002253 | 64 | 225 | 3.0 | 26.0 | 0.00 | 0.00 | 0.00 | 50 | 1011.9 |
| 20260507001751 | 64 | 225 | 5.0 | 31.0 | 0.00 | 0.00 | 0.00 | 50 | 1011.8 |
| 20260507001248 | 64 | 180 | 2.0 | 27.0 | 0.00 | 0.00 | 0.00 | 50 | 1011.8 |
| 20260507000746 | 64 | 225 | 3.0 | 27.0 | 0.00 | 0.00 | 0.00 | 50 | 1011.8 |
| 20260507000243 | 64 | 180 | 5.0 | 22.0 | 0.00 | 0.00 | 0.00 | 50 | 1011.6 |
| 20260506235741 | 64 | 225 | 4.0 | 27.0 | 0.00 | 0.00 | 0.00 | 50 | 1011.6 |
| 20260506235239 | 64 | 0 | 2.0 | 29.0 | 0.00 | 0.00 | 0.00 | 50 | 1011.3 |
| 20260506234736 | 64 | 225 | 3.0 | 28.0 | 0.00 | 0.00 | 0.00 | 50 | 1011.3 |
| 20260506234234 | 64 | 225 | 2.0 | 27.0 | 0.00 | 0.00 | 0.00 | 50 | 1011.2 |
| 20260506233731 | 64 | 225 | 3.0 | 37.0 | 0.00 | 0.00 | 0.00 | 50 | 1011.1 |
| 20260506233229 | 64 | 180 | 2.0 | 26.0 | 0.00 | 0.00 | 0.00 | 49 | 1010.9 |
| 20260506232726 | 65 | 180 | 2.0 | 32.0 | 0.00 | 0.00 | 0.00 | 49 | 1011.0 |
| 20260506232224 | 65 | 225 | 1.0 | 50.0 | 0.00 | 0.00 | 0.00 | 49 | 1010.9 |
| 20260506231219 | 65 | 180 | 5.0 | 47.0 | 0.00 | 0.00 | 0.00 | 49 | 1010.6 |
| 20260506230717 | 65 | 180 | 9.0 | 41.0 | 0.00 | 0.00 | 0.00 | 49 | 1010.6 |
| 20260506230214 | 66 | 225 | 2.0 | 29.0 | 0.00 | 0.00 | 0.00 | 49 | 1010.6 |
| 20260506225712 | 66 | 225 | 8.0 | 27.0 | 0.00 | 0.00 | 0.00 | 49 | 1010.4 |
| 20260506225210 | 66 | 180 | 4.0 | 54.0 | 0.00 | 0.00 | 0.00 | 48 | 1010.3 |
| 20260506224707 | 66 | 180 | 5.0 | 31.0 | 0.00 | 0.00 | 0.00 | 48 | 1010.3 |
| 20260506224205 | 66 | 180 | 5.0 | 33.0 | 0.00 | 0.00 | 0.00 | 48 | 1010.3 |
| 20260506223702 | 66 | 225 | 3.0 | 41.0 | 0.00 | 0.00 | 0.00 | 47 | 1010.2 |
| 20260506223200 | 66 | 180 | 1.0 | 28.0 | 0.00 | 0.00 | 0.00 | 46 | 1010.2 |
| 20260506222658 | 66 | 180 | 4.0 | 28.0 | 0.00 | 0.00 | 0.00 | 46 | 1009.9 |
| 20260506222155 | 66 | 180 | 4.0 | 28.0 | 0.00 | 0.00 | 0.00 | 45 | 1009.8 |
| 20260506221653 | 66 | 225 | 28.0 | 28.0 | 0.00 | 0.00 | 0.00 | 45 | 1009.9 |
| 20260506221150 | 66 | 180 | 1.0 | 27.0 | 0.00 | 0.00 | 0.00 | 44 | 1009.7 |
| 20260506220648 | 67 | 225 | 1.0 | 40.0 | 0.00 | 0.00 | 0.00 | 43 | 1009.7 |
| 20260506220145 | 67 | 180 | 0.0 | 36.0 | 0.00 | 0.00 | 0.00 | 43 | 1009.5 |
| 20260506215643 | 67 | 225 | 2.0 | 27.0 | 0.00 | 0.00 | 0.00 | 42 | 1009.3 |
| 20260506215141 | 67 | 225 | 3.0 | 33.0 | 0.00 | 0.00 | 0.00 | 42 | 1009.1 |
| 20260506214638 | 68 | 225 | 5.0 | 28.0 | 0.00 | 0.00 | 0.00 | 41 | 1009.0 |
| 20260506214136 | 68 | 180 | 2.0 | 15.0 | 0.00 | 0.00 | 0.00 | 41 | 1009.1 |
| 20260506213633 | 68 | 225 | 6.0 | 25.0 | 0.00 | 0.00 | 0.00 | 40 | 1008.9 |
| 20260506213131 | 68 | 225 | 5.0 | 26.0 | 0.00 | 0.00 | 0.00 | 40 | 1008.8 |
| 20260506212629 | 68 | 225 | 3.0 | 28.0 | 0.00 | 0.00 | 0.00 | 39 | 1008.7 |
| 20260506212126 | 69 | 180 | 2.0 | 49.0 | 0.00 | 0.00 | 0.00 | 39 | 1008.5 |
| 20260506211624 | 69 | 180 | 1.0 | 31.0 | 0.00 | 0.00 | 0.00 | 38 | 1008.4 |
| 20260506211121 | 69 | 225 | 2.0 | 23.0 | 0.00 | 0.00 | 0.00 | 37 | 1008.4 |
| 20260506210619 | 70 | 180 | 4.0 | 29.0 | 0.00 | 0.00 | 0.00 | 37 | 1008.2 |
| 20260506210117 | 70 | 270 | 2.0 | 27.0 | 0.00 | 0.00 | 0.00 | 37 | 1008.0 |
| 20260506205614 | 68 | 0 | 0.0 | 14.0 | 0.00 | 0.00 | 0.00 | 37 | 1007.8 |
| 20260506205112 | 68 | 225 | 0.0 | 8.0 | 0.00 | 0.00 | 0.00 | 36 | 1007.6 |
| 20260506204609 | 68 | 180 | 0.0 | 3.0 | 0.00 | 0.00 | 0.00 | 36 | 1007.4 |
| 20260506204107 | 69 | 180 | 0.0 | 6.0 | 0.00 | 0.00 | 0.00 | 36 | 1007.3 |
| 20260506203605 | 69 | 180 | 0.0 | 0.0 | 0.00 | 0.00 | 0.00 | 35 | 1007.2 |
| 20260506203102 | 69 | 180 | 0.0 | 0.0 | 0.00 | 0.00 | 0.00 | 35 | 1007.0 |
| 20260506202600 | 69 | 180 | 0.0 | 0.0 | 0.00 | 0.00 | 0.00 | 35 | 1006.9 |
| 20260506202057 | 69 | 180 | 0.0 | 1.0 | 0.00 | 0.00 | 0.00 | 34 | 1006.9 |
| 20260506201555 | 70 | 180 | 0.0 | 0.0 | 0.00 | 0.00 | 0.00 | 34 | 1006.8 |
| 20260506201052 | 70 | 180 | 0.0 | 0.0 | 0.00 | 0.00 | 0.00 | 34 | 1006.9 |
| 20260506200550 | 71 | 180 | 0.0 | 0.0 | 0.00 | 0.00 | 0.00 | 33 | 1006.9 |
| 20260506200048 | 71 | 180 | 0.0 | 1.0 | 0.00 | 0.00 | 0.00 | 33 | 1006.7 |
| 20260506195545 | 71 | 180 | 0.0 | 0.0 | 0.00 | 0.00 | 0.00 | 33 | 1006.7 |
| 20260506195043 | 72 | 180 | 0.0 | 0.0 | 0.00 | 0.00 | 0.00 | 33 | 1006.6 |
| 20260506194540 | 72 | 180 | 0.0 | 24.0 | 0.00 | 0.00 | 0.00 | 33 | 1006.6 |
| 20260506194038 | 72 | 225 | 0.0 | 22.0 | 0.00 | 0.00 | 0.00 | 33 | 1006.5 |
| 20260506193536 | 72 | 225 | 0.0 | 1.0 | 0.00 | 0.00 | 0.00 | 32 | 1006.4 |
| 20260506193033 | 72 | 180 | 9.0 | 22.0 | 0.00 | 0.00 | 0.00 | 32 | 1006.3 |
| 20260506192531 | 72 | 180 | 0.0 | 1.0 | 0.00 | 0.00 | 0.00 | 32 | 1006.2 |
| 20260506192028 | 73 | 180 | 0.0 | 1.0 | 0.00 | 0.00 | 0.00 | 32 | 1006.2 |
| 20260506191526 | 72 | 180 | 0.0 | 0.0 | 0.00 | 0.00 | 0.00 | 32 | 1006.1 |
| 20260506191024 | 73 | 180 | 0.0 | 0.0 | 0.00 | 0.00 | 0.00 | 31 | 1006.0 |
| 20260506190521 | 73 | 180 | 0.0 | 1.0 | 0.00 | 0.00 | 0.00 | 31 | 1006.0 |
| 20260506190019 | 73 | 180 | 0.0 | 1.0 | 0.00 | 0.00 | 0.00 | 31 | 1005.9 |
| 20260506185516 | 73 | 180 | 0.0 | 0.0 | 0.00 | 0.00 | 0.00 | 30 | 1005.8 |
| 20260506185014 | 74 | 180 | 0.0 | 0.0 | 0.00 | 0.00 | 0.00 | 30 | 1005.8 |
| 20260506184511 | 74 | 180 | 0.0 | 0.0 | 0.00 | 0.00 | 0.00 | 30 | 1005.7 |
| 20260506184009 | 74 | 180 | 0.0 | 0.0 | 0.00 | 0.00 | 0.00 | 1005.7 | |
| 20260506183507 | 74 | 45 | 0.0 | 24.0 | 0.00 | 0.00 | 0.00 | 30 | 1005.6 |
| 20260506183005 | 75 | 45 | 0.0 | 1.0 | 0.00 | 0.00 | 0.00 | 30 | 1005.6 |
| 20260506182502 | 75 | 180 | 0.0 | 1.0 | 0.00 | 0.00 | 0.00 | 29 | 1005.5 |
| 20260506181959 | 75 | 180 | 0.0 | 24.0 | 0.00 | 0.00 | 0.00 | 29 | 1005.3 |
| 20260506181457 | 75 | 270 | 0.0 | 24.0 | 0.00 | 0.00 | 0.00 | 29 | 1005.3 |
| 20260506180955 | 75 | 270 | 0.0 | 8.0 | 0.00 | 0.00 | 0.00 | 29 | 1005.3 |
| 20260506180452 | 76 | 0 | 0.0 | 23.0 | 0.00 | 0.00 | 0.00 | 28 | 1005.3 |
| 20260506175950 | 76 | 225 | 0.0 | 23.0 | 0.00 | 0.00 | 0.00 | 28 | 1005.3 |
| 20260506175447 | 77 | 270 | 0.0 | 0.0 | 0.00 | 0.00 | 0.00 | 28 | 1005.2 |
| 20260506174945 | 77 | 180 | 0.0 | 2.0 | 0.00 | 0.00 | 0.00 | 27 | 1005.1 |
| 20260506174442 | 77 | 315 | 0.0 | 2.0 | 0.00 | 0.00 | 0.00 | 27 | 1005.1 |
| 20260506173940 | 78 | 180 | 0.0 | 25.0 | 0.00 | 0.00 | 0.00 | 27 | 1005.1 |
| 20260506173438 | 78 | 45 | 0.0 | 18.0 | 0.00 | 0.00 | 0.00 | 27 | 1005.1 |
| 20260506172935 | 78 | 180 | 0.0 | 19.0 | 0.00 | 0.00 | 0.00 | 26 | 1005.2 |
| 20260506172433 | 79 | 180 | 0.0 | 2.0 | 0.00 | 0.00 | 0.00 | 26 | 1005.1 |
| 20260506171930 | 79 | 225 | 0.0 | 12.0 | 0.00 | 0.00 | 0.00 | 26 | 1005.1 |
| 20260506171428 | 79 | 45 | 0.0 | 1.0 | 0.00 | 0.00 | 0.00 | 26 | 1005.1 |
| 20260506170926 | 79 | 180 | 0.0 | 1.0 | 0.00 | 0.00 | 0.00 | 25 | 1005.2 |
| 20260506170423 | 80 | 180 | 0.0 | 1.0 | 0.00 | 0.00 | 0.00 | 25 | 1005.2 |
| 20260506165921 | 80 | 45 | 0.0 | 11.0 | 0.00 | 0.00 | 0.00 | 25 | 1005.2 |
| 20260506165418 | 81 | 225 | 0.0 | 1.0 | 0.00 | 0.00 | 0.00 | 24 | 1005.2 |
| 20260506164916 | 81 | 225 | 0.0 | 6.0 | 0.00 | 0.00 | 0.00 | 24 | 1005.2 |
| 20260506163911 | 82 | 0 | 0.0 | 1.0 | 0.00 | 0.00 | 0.00 | 23 | 1005.2 |
| 20260506163409 | 83 | 225 | 0.0 | 19.0 | 0.00 | 0.00 | 0.00 | 22 | 1005.2 |
| 20260506162906 | 83 | 225 | 0.0 | 19.0 | 0.00 | 0.00 | 0.00 | 22 | 1005.2 |
| 20260506162404 | 85 | 225 | 0.0 | 4.0 | 0.00 | 0.00 | 0.00 | 21 | 1005.2 |
| 20260506161901 | 85 | 180 | 0.0 | 1.0 | 0.00 | 0.00 | 0.00 | 21 | 1005.3 |
| 20260506161359 | 86 | 135 | 0.0 | 1.0 | 0.00 | 0.00 | 0.00 | 21 | 1005.3 |
| 20260506160857 | 86 | 225 | 0.0 | 1.0 | 0.00 | 0.00 | 0.00 | 21 | 1005.4 |
| 20260506160354 | 85 | 225 | 0.0 | 7.0 | 0.00 | 0.00 | 0.00 | 21 | 1005.4 |
| 20260506155852 | 86 | 180 | 1.0 | 15.0 | 0.00 | 0.00 | 0.00 | 20 | 1005.4 |
| 20260506155349 | 86 | 180 | 0.0 | 22.0 | 0.00 | 0.00 | 0.00 | 20 | 1005.5 |
| 20260506154847 | 87 | 180 | 0.0 | 20.0 | 0.00 | 0.00 | 0.00 | 20 | 1005.5 |
| 20260506154344 | 88 | 180 | 0.0 | 19.0 | 0.00 | 0.00 | 0.00 | 20 | 1005.5 |
| 20260506153842 | 90 | 225 | 1.0 | 14.0 | 0.00 | 0.00 | 0.00 | 19 | 1005.5 |
| 20260506153340 | 91 | 225 | 0.0 | 17.0 | 0.00 | 0.00 | 0.00 | 19 | 1005.5 |
| 20260506152837 | 93 | 180 | 0.0 | 16.0 | 0.00 | 0.00 | 0.00 | 19 | 1005.6 |
| 20260506151832 | 95 | 180 | 0.0 | 19.0 | 0.00 | 0.00 | 0.00 | 19 | 1005.7 |
| 20260506151330 | 94 | 180 | 1.0 | 7.0 | 0.00 | 0.00 | 0.00 | 19 | 1005.6 |
| 20260506150828 | 92 | 225 | 1.0 | 16.0 | 0.00 | 0.00 | 0.00 | 19 | 1005.6 |
| 20260506150325 | 92 | 225 | 1.0 | 5.0 | 0.00 | 0.00 | 0.00 | 19 | 1005.7 |
| 20260506145823 | 92 | 180 | 0.0 | 20.0 | 0.00 | 0.00 | 0.00 | 19 | 1005.7 |
| 20260506145321 | 93 | 135 | 0.0 | 18.0 | 0.00 | 0.00 | 0.00 | 18 | 1005.7 |
| 20260506144818 | 94 | 225 | 0.0 | 18.0 | 0.00 | 0.00 | 0.00 | 18 | 1005.8 |
| 20260506144316 | 96 | 180 | 0.0 | 18.0 | 0.00 | 0.00 | 0.00 | 18 | 1005.7 |
| 20260506143311 | 99 | 180 | 1.0 | 17.0 | 0.00 | 0.00 | 0.00 | 17 | 1005.7 |
| 20260506142808 | 96 | 225 | 0.0 | 16.0 | 0.00 | 0.00 | 0.00 | 18 | 1005.7 |
| 20260506142306 | 96 | 180 | 0.0 | 6.0 | 0.00 | 0.00 | 0.00 | 18 | 1005.7 |
| 20260506141301 | 95 | 180 | 1.0 | 15.0 | 0.00 | 0.00 | 0.00 | 19 | 1005.9 |
| 20260506140759 | 93 | 180 | 1.0 | 19.0 | 0.00 | 0.00 | 0.00 | 18 | 1005.8 |
| 20260506140256 | 96 | 180 | 0.0 | 3.0 | 0.00 | 0.00 | 0.00 | 18 | 1005.9 |
| 20260506135754 | 96 | 180 | 1.0 | 17.0 | 0.00 | 0.00 | 0.00 | 17 | 1005.9 |
| 20260506135251 | 100 | 225 | 1.0 | 16.0 | 0.00 | 0.00 | 0.00 | 17 | 1006.0 |
| 20260506134749 | 100 | 180 | 0.0 | 19.0 | 0.00 | 0.00 | 0.00 | 18 | 1005.9 |
| 20260506133242 | 99 | 90 | 1.0 | 15.0 | 0.00 | 0.00 | 0.00 | 18 | 1006.0 |
| 20260506132237 | 102 | 225 | 0.0 | 14.0 | 0.00 | 0.00 | 0.00 | 18 | 1006.2 |
| 20260506131734 | 108 | 315 | 0.0 | 6.0 | 0.00 | 0.00 | 0.00 | 18 | 1006.3 |
| 20260506130730 | 104 | 180 | 1.0 | 10.0 | 0.00 | 0.00 | 0.00 | 19 | 1006.2 |
| 20260506130227 | 98 | 45 | 0.0 | 16.0 | 0.00 | 0.00 | 0.00 | 20 | 1006.3 |
| 20260506125725 | 100 | 270 | 9.0 | 12.0 | 0.00 | 0.00 | 0.00 | 20 | 1006.4 |
| 20260506125222 | 103 | 225 | 0.0 | 14.0 | 0.00 | 0.00 | 0.00 | 20 | 1006.5 |
| 20260506124218 | 95 | 315 | 0.0 | 17.0 | 0.00 | 0.00 | 0.00 | 21 | 1006.5 |
| 20260506123715 | 96 | 315 | 0.0 | 5.0 | 0.00 | 0.00 | 0.00 | 21 | 1006.6 |
| 20260506123213 | 95 | 225 | 16.0 | 17.0 | 0.00 | 0.00 | 0.00 | 20 | 1006.6 |
| 20260506122710 | 97 | 315 | 0.0 | 12.0 | 0.00 | 0.00 | 0.00 | 20 | 1006.7 |
| 20260506122208 | 102 | 1.0 | 28.0 | 0.00 | 0.00 | 0.00 | 20 | 1006.8 | |
| 20260506121203 | 99 | 45 | 1.0 | 14.0 | 0.00 | 0.00 | 0.00 | 21 | 1006.8 |
| 20260506120701 | 98 | 315 | 0.0 | 7.0 | 0.00 | 0.00 | 0.00 | 21 | 1006.8 |
| 20260506120158 | 98 | 315 | 1.0 | 17.0 | 0.00 | 0.00 | 0.00 | 22 | 1006.9 |
| 20260506115656 | 99 | 45 | 1.0 | 8.0 | 0.00 | 0.00 | 0.00 | 21 | 1007.1 |
| 20260506115153 | 102 | 45 | 1.0 | 14.0 | 0.00 | 0.00 | 0.00 | 21 | 1007.2 |
| 20260506114651 | 102 | 225 | 0.0 | 1.0 | 0.00 | 0.00 | 0.00 | 22 | 1007.2 |
| 20260506114149 | 101 | 45 | 1.0 | 15.0 | 0.00 | 0.00 | 0.00 | 23 | 1007.3 |
| 20260506113646 | 99 | 315 | 0.0 | 2.0 | 0.00 | 0.00 | 0.00 | 24 | 1007.4 |
| 20260506113144 | 95 | 225 | 1.0 | 18.0 | 0.00 | 0.00 | 0.00 | 22 | 1007.4 |
| 20260506112641 | 98 | 180 | 0.0 | 17.0 | 0.00 | 0.00 | 0.00 | 24 | 1007.6 |
| 20260506112139 | 96 | 270 | 1.0 | 14.0 | 0.00 | 0.00 | 0.00 | 24 | 1007.6 |
| 20260506111637 | 99 | 315 | 1.0 | 7.0 | 0.00 | 0.00 | 0.00 | 23 | 1007.7 |
| 20260506111134 | 97 | 180 | 0.0 | 18.0 | 0.00 | 0.00 | 0.00 | 24 | 1007.7 |
| 20260506110632 | 97 | 225 | 1.0 | 17.0 | 0.00 | 0.00 | 0.00 | 24 | 1007.8 |
| 20260506110129 | 97 | 45 | 0.0 | 15.0 | 0.00 | 0.00 | 0.00 | 25 | 1008.0 |
| 20260506105125 | 95 | 225 | 0.0 | 18.0 | 0.00 | 0.00 | 0.00 | 26 | 1008.1 |
| 20260506104622 | 97 | 225 | 0.0 | 16.0 | 0.00 | 0.00 | 0.00 | 26 | 1008.2 |
| 20260506104120 | 96 | 315 | 0.0 | 16.0 | 0.00 | 0.00 | 0.00 | 26 | 1008.2 |
| 20260506103617 | 96 | 45 | 0.0 | 4.0 | 0.00 | 0.00 | 0.00 | 26 | 1008.3 |
| 20260506103115 | 95 | 45 | 0.0 | 16.0 | 0.00 | 0.00 | 0.00 | 26 | 1008.5 |
| 20260506102612 | 97 | 180 | 1.0 | 17.0 | 0.00 | 0.00 | 0.00 | 26 | 1008.5 |
| 20260506100603 | 95 | 0 | 0.0 | 12.0 | 0.00 | 0.00 | 0.00 | 28 | 1008.9 |
| 20260506100100 | 92 | 225 | 0.0 | 17.0 | 0.00 | 0.00 | 0.00 | 29 | 1008.9 |
| 20260506095558 | 89 | 0 | 0.0 | 13.0 | 0.00 | 0.00 | 0.00 | 30 | 1008.8 |
| 20260506095056 | 93 | 45 | 0.0 | 6.0 | 0.00 | 0.00 | 0.00 | 29 | 1008.9 |
| 20260506094051 | 93 | 45 | 0.0 | 2.0 | 0.00 | 0.00 | 0.00 | 30 | 1009.1 |
| 20260506093548 | 89 | 225 | 0.0 | 8.0 | 0.00 | 0.00 | 0.00 | 30 | 1009.1 |
| 20260506093046 | 94 | 270 | 0.0 | 4.0 | 0.00 | 0.00 | 0.00 | 29 | 1009.2 |
| 20260506092041 | 94 | 225 | 0.0 | 2.0 | 0.00 | 0.00 | 0.00 | 32 | 1009.4 |
| 20260506091539 | 94 | 180 | 0.0 | 1.0 | 0.00 | 0.00 | 0.00 | 32 | 1009.4 |
| 20260506091036 | 92 | 225 | 1.0 | 7.0 | 0.00 | 0.00 | 0.00 | 32 | 1009.5 |
| 20260506090534 | 92 | 225 | 0.0 | 1.0 | 0.00 | 0.00 | 0.00 | 34 | 1009.6 |
| 20260506090031 | 92 | 135 | 0.0 | 12.0 | 0.00 | 0.00 | 0.00 | 34 | 1009.6 |
| 20260506085529 | 92 | 180 | 1.0 | 13.0 | 0.00 | 0.00 | 0.00 | 35 | 1009.8 |
| 20260506085027 | 90 | 270 | 0.0 | 18.0 | 0.00 | 0.00 | 0.00 | 37 | 1009.7 |
| 20260506084525 | 87 | 180 | 0.0 | 18.0 | 0.00 | 0.00 | 0.00 | 38 | 1009.6 |
| 20260506084022 | 84 | 1.0 | 5.0 | 0.00 | 0.00 | 0.00 | 38 | 1009.7 | |
| 20260506083519 | 82 | 135 | 2.0 | 17.0 | 0.00 | 0.00 | 0.00 | 38 | 1009.6 |
| 20260506083017 | 82 | 0.0 | 22.0 | 0.00 | 0.00 | 0.00 | 38 | 1009.6 | |
| 20260506082515 | 82 | 135 | 1.0 | 10.0 | 0.00 | 0.00 | 0.00 | 39 | 1009.6 |
| 20260506082012 | 84 | 45 | 2.0 | 21.0 | 0.00 | 0.00 | 0.00 | 40 | 1009.8 |
| 20260506081510 | 82 | 45 | 0.0 | 17.0 | 0.00 | 0.00 | 0.00 | 41 | 1009.8 |
| 20260506081007 | 83 | 315 | 0.0 | 22.0 | 0.00 | 0.00 | 0.00 | 41 | 1009.9 |
| 20260506080505 | 82 | 135 | 0.0 | 23.0 | 0.00 | 0.00 | 0.00 | 41 | 1009.9 |
| 20260506072948 | 75 | 1.0 | 14.0 | 0.00 | 0.00 | 0.00 | 44 | 1010.3 | |
| 20260506072445 | 75 | 45 | 0.0 | 15.0 | 0.00 | 0.00 | 0.00 | 44 | 1010.3 |
| 20260506071943 | 75 | 45 | 0.0 | 11.0 | 0.00 | 0.00 | 0.00 | 45 | 1010.4 |
| 20260506071441 | 75 | 45 | 0.0 | 4.0 | 0.00 | 0.00 | 0.00 | 45 | 1010.4 |
| 20260506070938 | 74 | 45 | 0.0 | 22.0 | 0.00 | 0.00 | 0.00 | 45 | 1010.4 |
| 20260506070436 | 74 | 0 | 0.0 | 23.0 | 0.00 | 0.00 | 0.00 | 45 | 1010.5 |
| 20260506062416 | 75 | 270 | 0.0 | 20.0 | 0.00 | 0.00 | 0.00 | 47 | 1011.0 |
| 20260506061914 | 75 | 180 | 0.0 | 19.0 | 0.00 | 0.00 | 0.00 | 49 | 1010.9 |
| 20260506061412 | 73 | 180 | 0.0 | 2.0 | 0.00 | 0.00 | 0.00 | 49 | 1010.9 |
| 20260506060909 | 73 | 180 | 0.0 | 1.0 | 0.00 | 0.00 | 0.00 | 49 | 1010.9 |
| 20260506060407 | 74 | 180 | 0.0 | 0.0 | 0.00 | 0.00 | 0.00 | 49 | 1010.9 |